Time,TemperatureF,DewpointF,PressureIn,WindDirection,WindDirectionDegrees,WindSpeedMPH,WindSpeedGustMPH,Humidity,HourlyPrecipIn,Conditions,Clouds,dailyrainin,SolarRadiationWatts/m^2,SoftwareType,DateUTC
2013-07-18 00:00:00,63.1,57.2,30.17,WNW,293,0.0,-999.0,81,0.00,,,0.00,0,Wunderground v.1.15,2013-07-18 07:00:00,
2013-07-18 00:05:00,63.1,57.2,30.17,WNW,293,0.0,-999.0,81,0.00,,,0.00,0,Wunderground v.1.15,2013-07-18 07:05:00,
2013-07-18 00:06:00,63.1,58.0,30.18,WNW,294,0.0,3.0,82,0.00,,,0.00,0,weatherlink.com 1.10,2013-07-18 07:06:00,
2013-07-18 00:10:00,63.1,57.2,30.17,WNW,293,0.0,-999.0,81,0.00,,,0.00,0,Wunderground v.1.15,2013-07-18 07:10:00,
2013-07-18 00:15:00,63.1,57.2,30.17,WNW,293,0.0,-999.0,81,0.00,,,0.00,0,Wunderground v.1.15,2013-07-18 07:15:00,
2013-07-18 00:20:00,63.1,57.2,30.17,WNW,293,0.0,-999.0,81,0.00,,,0.00,0,Wunderground v.1.15,2013-07-18 07:20:00,
2013-07-18 00:21:00,63.0,57.0,30.18,WNW,294,0.0,2.0,82,0.00,,,0.00,0,weatherlink.com 1.10,2013-07-18 07:21:00,
2013-07-18 00:25:00,62.9,57.3,30.18,WNW,293,0.0,-999.0,82,0.00,,,0.00,0,Wunderground v.1.15,2013-07-18 07:25:00,
2013-07-18 00:30:00,62.9,57.3,30.18,WNW,293,0.0,-999.0,82,0.00,,,0.00,0,Wunderground v.1.15,2013-07-18 07:30:00,
2013-07-18 00:35:00,62.9,57.3,30.18,WNW,293,0.0,-999.0,82,0.00,,,0.00,0,Wunderground v.1.15,2013-07-18 07:35:00,
2013-07-18 00:36:00,62.8,57.0,30.18,WNW,294,0.0,2.0,81,0.00,,,0.00,0,weatherlink.com 1.10,2013-07-18 07:36:00,
2013-07-18 00:40:00,62.8,56.9,30.18,WNW,293,0.0,-999.0,81,0.00,,,0.00,0,Wunderground v.1.15,2013-07-18 07:40:00,
2013-07-18 00:45:00,62.8,56.9,30.18,WNW,293,0.0,-999.0,81,0.00,,,0.00,0,Wunderground v.1.15,2013-07-18 07:45:00,
2013-07-18 00:50:00,62.8,56.9,30.18,WNW,293,0.0,-999.0,81,0.00,,,0.00,0,Wunderground v.1.15,2013-07-18 07:50:00,
2013-07-18 00:51:00,62.3,56.0,30.18,WNW,294,1.0,2.0,81,0.00,,,0.00,0,weatherlink.com 1.10,2013-07-18 07:51:00,
2013-07-18 00:55:00,62.2,56.0,30.18,WNW,293,1.0,-999.0,80,0.00,,,0.00,0,Wunderground v.1.15,2013-07-18 07:55:00,
2013-07-18 01:00:00,62.2,56.0,30.18,WNW,293,1.0,-999.0,80,0.00,,,0.00,0,Wunderground v.1.15,2013-07-18 08:00:00,
2013-07-18 01:05:00,62.2,56.0,30.18,WNW,293,1.0,-999.0,80,0.00,,,0.00,0,Wunderground v.1.15,2013-07-18 08:05:00,
2013-07-18 01:06:00,61.8,56.0,30.18,WNW,298,0.0,3.0,80,0.00,,,0.00,0,weatherlink.com 1.10,2013-07-18 08:06:00,
2013-07-18 01:10:00,61.6,55.7,30.18,WNW,293,0.0,-999.0,81,0.00,,,0.00,0,Wunderground v.1.15,2013-07-18 08:10:00,
2013-07-18 01:15:00,61.6,55.7,30.18,WNW,293,0.0,-999.0,81,0.00,,,0.00,0,Wunderground v.1.15,2013-07-18 08:15:00,
2013-07-18 01:20:00,61.6,55.7,30.18,WNW,293,0.0,-999.0,81,0.00,,,0.00,0,Wunderground v.1.15,2013-07-18 08:20:00,
2013-07-18 01:21:00,61.1,55.0,30.18,WNW,298,0.0,1.0,81,0.00,,,0.00,0,weatherlink.com 1.10,2013-07-18 08:21:00,
2013-07-18 01:25:00,60.9,55.7,30.18,WNW,293,0.0,-999.0,83,0.00,,,0.00,0,Wunderground v.1.15,2013-07-18 08:25:00,
2013-07-18 01:30:00,60.9,55.7,30.18,WNW,293,0.0,-999.0,83,0.00,,,0.00,0,Wunderground v.1.15,2013-07-18 08:30:00,
2013-07-18 01:35:00,60.9,55.7,30.18,WNW,293,0.0,-999.0,83,0.00,,,0.00,0,Wunderground v.1.15,2013-07-18 08:35:00,
2013-07-18 01:36:00,60.1,55.0,30.18,WNW,298,1.0,2.0,83,0.00,,,0.00,0,weatherlink.com 1.10,2013-07-18 08:36:00,
2013-07-18 01:40:00,59.9,55.1,30.18,WNW,293,1.0,-999.0,84,0.00,,,0.00,0,Wunderground v.1.15,2013-07-18 08:40:00,
2013-07-18 01:45:00,59.9,55.1,30.18,WNW,293,1.0,-999.0,84,0.00,,,0.00,0,Wunderground v.1.15,2013-07-18 08:45:00,
2013-07-18 01:50:00,59.9,55.1,30.18,WNW,293,1.0,-999.0,84,0.00,,,0.00,0,Wunderground v.1.15,2013-07-18 08:50:00,
2013-07-18 01:51:00,59.6,54.0,30.18,WNW,298,0.0,2.0,83,0.00,,,0.00,0,weatherlink.com 1.10,2013-07-18 08:51:00,
2013-07-18 01:55:00,59.5,55.0,30.18,WNW,293,0.0,-999.0,85,0.00,,,0.00,0,Wunderground v.1.15,2013-07-18 08:55:00,
2013-07-18 02:00:00,59.5,55.0,30.18,WNW,293,0.0,-999.0,85,0.00,,,0.00,0,Wunderground v.1.15,2013-07-18 09:00:00,
2013-07-18 02:05:00,59.5,55.0,30.18,WNW,293,0.0,-999.0,85,0.00,,,0.00,0,Wunderground v.1.15,2013-07-18 09:05:00,
2013-07-18 02:06:00,59.1,55.0,30.18,WNW,298,0.0,2.0,85,0.00,,,0.00,0,weatherlink.com 1.10,2013-07-18 09:06:00,
2013-07-18 02:10:00,59.1,54.6,30.18,WNW,293,0.0,-999.0,85,0.00,,,0.00,0,Wunderground v.1.15,2013-07-18 09:10:00,
2013-07-18 02:15:00,59.1,54.6,30.18,WNW,293,0.0,-999.0,85,0.00,,,0.00,0,Wunderground v.1.15,2013-07-18 09:15:00,
2013-07-18 02:20:00,59.1,54.6,30.18,WNW,293,0.0,-999.0,85,0.00,,,0.00,0,Wunderground v.1.15,2013-07-18 09:20:00,
2013-07-18 02:21:00,59.0,55.0,30.18,WNW,299,0.0,0.0,85,0.00,,,0.00,0,weatherlink.com 1.10,2013-07-18 09:21:00,
2013-07-18 02:25:00,59.0,54.5,30.19,N/A,-737280,0.0,-999.0,85,0.00,,,0.00,0,Wunderground v.1.15,2013-07-18 09:25:00,
2013-07-18 02:30:00,59.0,54.5,30.19,N/A,-737280,0.0,-999.0,85,0.00,,,0.00,0,Wunderground v.1.15,2013-07-18 09:30:00,
2013-07-18 02:35:00,59.0,54.5,30.19,N/A,-737280,0.0,-999.0,85,0.00,,,0.00,0,Wunderground v.1.15,2013-07-18 09:35:00,
2013-07-18 02:36:00,58.8,54.0,30.19,WNW,299,0.0,0.0,85,0.00,,,0.00,0,weatherlink.com 1.10,2013-07-18 09:36:00,
2013-07-18 02:40:00,58.7,54.5,30.19,N/A,-737280,0.0,-999.0,86,0.00,,,0.00,0,Wunderground v.1.15,2013-07-18 09:40:00,
2013-07-18 02:45:00,58.7,54.5,30.19,N/A,-737280,0.0,-999.0,86,0.00,,,0.00,0,Wunderground v.1.15,2013-07-18 09:45:00,
2013-07-18 02:50:00,58.7,54.5,30.19,N/A,-737280,0.0,-999.0,86,0.00,,,0.00,0,Wunderground v.1.15,2013-07-18 09:50:00,
2013-07-18 02:52:00,58.4,54.0,30.19,WNW,299,0.0,0.0,86,0.00,,,0.00,0,weatherlink.com 1.10,2013-07-18 09:52:00,
2013-07-18 02:55:00,58.4,54.2,30.19,North,0,0.0,-999.0,86,0.00,,,0.00,0,Wunderground v.1.15,2013-07-18 09:55:00,
2013-07-18 03:00:00,58.4,54.2,30.19,North,0,0.0,-999.0,86,0.00,,,0.00,0,Wunderground v.1.15,2013-07-18 10:00:00,
2013-07-18 03:05:00,58.4,54.2,30.19,North,0,0.0,-999.0,86,0.00,,,0.00,0,Wunderground v.1.15,2013-07-18 10:05:00,
2013-07-18 03:07:00,58.4,54.0,30.19,North,360,0.0,3.0,86,0.00,,,0.00,0,weatherlink.com 1.10,2013-07-18 10:07:00,
2013-07-18 03:10:00,58.4,54.2,30.19,North,0,0.0,-999.0,86,0.00,,,0.00,0,Wunderground v.1.15,2013-07-18 10:10:00,
2013-07-18 03:15:00,58.4,54.2,30.19,North,0,0.0,-999.0,86,0.00,,,0.00,0,Wunderground v.1.15,2013-07-18 10:15:00,
2013-07-18 03:20:00,58.4,54.2,30.19,North,0,0.0,-999.0,86,0.00,,,0.00,0,Wunderground v.1.15,2013-07-18 10:20:00,
2013-07-18 03:22:00,58.5,54.0,30.19,NW,311,0.0,4.0,85,0.00,,,0.00,0,weatherlink.com 1.10,2013-07-18 10:22:00,
2013-07-18 03:25:00,58.5,54.3,30.19,NW,315,0.0,-999.0,86,0.00,,,0.00,0,Wunderground v.1.15,2013-07-18 10:25:00,
2013-07-18 03:30:00,58.5,54.3,30.19,NW,315,0.0,-999.0,86,0.00,,,0.00,0,Wunderground v.1.15,2013-07-18 10:30:00,
2013-07-18 03:35:00,58.5,54.3,30.19,NW,315,0.0,-999.0,86,0.00,,,0.00,0,Wunderground v.1.15,2013-07-18 10:35:00,
2013-07-18 03:37:00,58.6,55.0,30.19,NW,313,0.0,0.0,86,0.00,,,0.00,0,weatherlink.com 1.10,2013-07-18 10:37:00,
2013-07-18 03:40:00,58.6,54.4,30.19,NW,315,0.0,-999.0,86,0.00,,,0.00,0,Wunderground v.1.15,2013-07-18 10:40:00,
2013-07-18 03:45:00,58.6,54.4,30.19,NW,315,0.0,-999.0,86,0.00,,,0.00,0,Wunderground v.1.15,2013-07-18 10:45:00,
2013-07-18 03:50:00,58.6,54.4,30.19,NW,315,0.0,-999.0,86,0.00,,,0.00,0,Wunderground v.1.15,2013-07-18 10:50:00,
2013-07-18 03:52:00,58.6,55.0,30.19,NW,313,0.0,1.0,86,0.00,,,0.00,0,weatherlink.com 1.10,2013-07-18 10:52:00,
2013-07-18 03:55:00,58.6,54.4,30.19,N/A,-737280,0.0,-999.0,86,0.00,,,0.00,0,Wunderground v.1.15,2013-07-18 10:55:00,
2013-07-18 04:00:00,58.6,54.4,30.19,N/A,-737280,0.0,-999.0,86,0.00,,,0.00,0,Wunderground v.1.15,2013-07-18 11:00:00,
2013-07-18 04:05:00,58.6,54.4,30.19,N/A,-737280,0.0,-999.0,86,0.00,,,0.00,0,Wunderground v.1.15,2013-07-18 11:05:00,
2013-07-18 04:07:00,58.7,55.0,30.19,NW,313,0.0,0.0,86,0.00,,,0.00,0,weatherlink.com 1.10,2013-07-18 11:07:00,
2013-07-18 04:10:00,58.7,54.5,30.19,N/A,-737280,0.0,-999.0,86,0.00,,,0.00,0,Wunderground v.1.15,2013-07-18 11:10:00,
2013-07-18 04:15:00,58.7,54.5,30.19,N/A,-737280,0.0,-999.0,86,0.00,,,0.00,0,Wunderground v.1.15,2013-07-18 11:15:00,
2013-07-18 04:20:00,58.7,54.5,30.19,N/A,-737280,0.0,-999.0,86,0.00,,,0.00,0,Wunderground v.1.15,2013-07-18 11:20:00,
2013-07-18 04:22:00,58.6,55.0,30.19,NW,313,0.0,0.0,86,0.00,,,0.00,0,weatherlink.com 1.10,2013-07-18 11:22:00,
2013-07-18 04:25:00,58.7,54.5,30.19,N/A,-737280,0.0,-999.0,86,0.00,,,0.00,0,Wunderground v.1.15,2013-07-18 11:25:00,
2013-07-18 04:30:00,58.7,54.5,30.19,N/A,-737280,0.0,-999.0,86,0.00,,,0.00,0,Wunderground v.1.15,2013-07-18 11:30:00,
2013-07-18 04:35:00,58.7,54.5,30.19,N/A,-737280,0.0,-999.0,86,0.00,,,0.00,0,Wunderground v.1.15,2013-07-18 11:35:00,
2013-07-18 04:37:00,58.6,55.0,30.19,NW,313,0.0,0.0,86,0.00,,,0.00,0,weatherlink.com 1.10,2013-07-18 11:37:00,
2013-07-18 04:40:00,58.6,54.4,30.19,N/A,-737280,0.0,-999.0,86,0.00,,,0.00,0,Wunderground v.1.15,2013-07-18 11:40:00,
2013-07-18 04:45:00,58.6,54.4,30.19,N/A,-737280,0.0,-999.0,86,0.00,,,0.00,0,Wunderground v.1.15,2013-07-18 11:45:00,
2013-07-18 04:50:00,58.6,54.4,30.19,N/A,-737280,0.0,-999.0,86,0.00,,,0.00,0,Wunderground v.1.15,2013-07-18 11:50:00,
2013-07-18 04:52:00,58.6,55.0,30.19,NW,313,0.0,0.0,86,0.00,,,0.00,0,weatherlink.com 1.10,2013-07-18 11:52:00,
2013-07-18 04:55:00,58.6,54.4,30.19,N/A,-737280,0.0,-999.0,86,0.00,,,0.00,0,Wunderground v.1.15,2013-07-18 11:55:00,
2013-07-18 05:00:00,58.6,54.4,30.19,N/A,-737280,0.0,-999.0,86,0.00,,,0.00,0,Wunderground v.1.15,2013-07-18 12:00:00,
2013-07-18 05:05:00,58.6,54.4,30.19,N/A,-737280,0.0,-999.0,86,0.00,,,0.00,0,Wunderground v.1.15,2013-07-18 12:05:00,
2013-07-18 05:07:00,58.6,54.0,30.19,NW,313,1.0,2.0,85,0.00,,,0.00,0,weatherlink.com 1.10,2013-07-18 12:07:00,
2013-07-18 05:10:00,58.6,54.1,30.19,NW,315,0.0,-999.0,85,0.00,,,0.00,0,Wunderground v.1.15,2013-07-18 12:10:00,
2013-07-18 05:15:00,58.6,54.1,30.19,NW,315,0.0,-999.0,85,0.00,,,0.00,0,Wunderground v.1.15,2013-07-18 12:15:00,
2013-07-18 05:20:00,58.6,54.1,30.19,NW,315,0.0,-999.0,85,0.00,,,0.00,0,Wunderground v.1.15,2013-07-18 12:20:00,
2013-07-18 05:22:00,58.4,54.0,30.19,North,349,0.0,2.0,85,0.00,,,0.00,0,weatherlink.com 1.10,2013-07-18 12:22:00,
2013-07-18 05:25:00,58.4,54.2,30.19,NNW,338,0.0,-999.0,86,0.00,,,0.00,0,Wunderground v.1.15,2013-07-18 12:25:00,
2013-07-18 05:30:00,58.4,54.2,30.19,NNW,338,0.0,-999.0,86,0.00,,,0.00,0,Wunderground v.1.15,2013-07-18 12:30:00,
2013-07-18 05:35:00,58.4,54.2,30.19,NNW,338,0.0,-999.0,86,0.00,,,0.00,0,Wunderground v.1.15,2013-07-18 12:35:00,
2013-07-18 05:37:00,58.4,54.0,30.19,NNW,344,0.0,1.0,86,0.00,,,0.00,0,weatherlink.com 1.10,2013-07-18 12:37:00,
2013-07-18 05:40:00,58.4,54.2,30.19,N/A,-737280,0.0,-999.0,86,0.00,,,0.00,1,Wunderground v.1.15,2013-07-18 12:40:00,
2013-07-18 05:45:00,58.4,54.2,30.19,N/A,-737280,0.0,-999.0,86,0.00,,,0.00,1,Wunderground v.1.15,2013-07-18 12:45:00,
2013-07-18 05:50:00,58.4,54.2,30.19,N/A,-737280,0.0,-999.0,86,0.00,,,0.00,1,Wunderground v.1.15,2013-07-18 12:50:00,
2013-07-18 05:52:00,58.5,54.0,30.19,NNW,344,0.0,0.0,86,0.00,,,0.00,7,weatherlink.com 1.10,2013-07-18 12:52:00,
2013-07-18 05:55:00,58.5,54.3,30.20,N/A,-737280,0.0,-999.0,86,0.00,,,0.00,8,Wunderground v.1.15,2013-07-18 12:55:00,
2013-07-18 06:00:00,58.5,54.3,30.20,N/A,-737280,0.0,-999.0,86,0.00,,,0.00,8,Wunderground v.1.15,2013-07-18 13:00:00,
2013-07-18 06:05:00,58.5,54.3,30.20,N/A,-737280,0.0,-999.0,86,0.00,,,0.00,8,Wunderground v.1.15,2013-07-18 13:05:00,
2013-07-18 06:07:00,58.5,54.0,30.20,NNW,344,0.0,0.0,86,0.00,,,0.00,14,weatherlink.com 1.10,2013-07-18 13:07:00,
2013-07-18 06:10:00,58.5,54.3,30.20,NNW,338,0.0,-999.0,86,0.00,,,0.00,15,Wunderground v.1.15,2013-07-18 13:10:00,
2013-07-18 06:15:00,58.5,54.3,30.20,NNW,338,0.0,-999.0,86,0.00,,,0.00,15,Wunderground v.1.15,2013-07-18 13:15:00,
2013-07-18 06:20:00,58.5,54.3,30.20,NNW,338,0.0,-999.0,86,0.00,,,0.00,15,Wunderground v.1.15,2013-07-18 13:20:00,
2013-07-18 06:22:00,58.4,54.0,30.20,NW,305,0.0,3.0,86,0.00,,,0.00,19,weatherlink.com 1.10,2013-07-18 13:22:00,
2013-07-18 06:25:00,58.3,54.1,30.20,NW,315,1.0,-999.0,86,0.00,,,0.00,22,Wunderground v.1.15,2013-07-18 13:25:00,
2013-07-18 06:30:00,58.3,54.1,30.20,NW,315,1.0,-999.0,86,0.00,,,0.00,22,Wunderground v.1.15,2013-07-18 13:30:00,
2013-07-18 06:35:00,58.3,54.1,30.20,NW,315,1.0,-999.0,86,0.00,,,0.00,22,Wunderground v.1.15,2013-07-18 13:35:00,
2013-07-18 06:37:00,58.4,54.0,30.20,NW,304,0.0,4.0,86,0.00,,,0.00,30,weatherlink.com 1.10,2013-07-18 13:37:00,
2013-07-18 06:40:00,58.4,54.2,30.20,NW,315,0.0,-999.0,86,0.00,,,0.00,33,Wunderground v.1.15,2013-07-18 13:40:00,
2013-07-18 06:45:00,58.4,54.2,30.20,NW,315,0.0,-999.0,86,0.00,,,0.00,33,Wunderground v.1.15,2013-07-18 13:45:00,
2013-07-18 06:50:00,58.4,54.2,30.20,NW,315,0.0,-999.0,86,0.00,,,0.00,33,Wunderground v.1.15,2013-07-18 13:50:00,
2013-07-18 06:52:00,58.5,54.0,30.20,NW,304,0.0,1.0,85,0.00,,,0.00,39,weatherlink.com 1.10,2013-07-18 13:52:00,
2013-07-18 06:55:00,58.6,54.1,30.21,WNW,293,0.0,-999.0,85,0.00,,,0.00,40,Wunderground v.1.15,2013-07-18 13:55:00,
2013-07-18 07:00:00,58.6,54.1,30.21,WNW,293,0.0,-999.0,85,0.00,,,0.00,40,Wunderground v.1.15,2013-07-18 14:00:00,
2013-07-18 07:05:00,58.6,54.1,30.21,WNW,293,0.0,-999.0,85,0.00,,,0.00,40,Wunderground v.1.15,2013-07-18 14:05:00,
2013-07-18 07:07:00,58.6,54.0,30.21,WNW,292,0.0,2.0,85,0.00,,,0.00,51,weatherlink.com 1.10,2013-07-18 14:07:00,
2013-07-18 07:10:00,58.6,54.1,30.21,WNW,293,1.0,-999.0,85,0.00,,,0.00,53,Wunderground v.1.15,2013-07-18 14:10:00,
2013-07-18 07:15:00,58.6,54.1,30.21,WNW,293,1.0,-999.0,85,0.00,,,0.00,53,Wunderground v.1.15,2013-07-18 14:15:00,
2013-07-18 07:20:00,58.6,54.1,30.21,WNW,293,1.0,-999.0,85,0.00,,,0.00,53,Wunderground v.1.15,2013-07-18 14:20:00,
2013-07-18 07:22:00,58.6,54.0,30.21,WNW,298,0.0,2.0,85,0.00,,,0.00,62,weatherlink.com 1.10,2013-07-18 14:22:00,
2013-07-18 07:25:00,58.7,54.2,30.21,WNW,293,0.0,-999.0,85,0.00,,,0.00,64,Wunderground v.1.15,2013-07-18 14:25:00,
2013-07-18 07:30:00,58.7,54.2,30.21,WNW,293,0.0,-999.0,85,0.00,,,0.00,64,Wunderground v.1.15,2013-07-18 14:30:00,
2013-07-18 07:35:00,58.7,54.2,30.21,WNW,293,0.0,-999.0,85,0.00,,,0.00,64,Wunderground v.1.15,2013-07-18 14:35:00,
2013-07-18 07:37:00,58.9,54.0,30.21,NW,305,0.0,3.0,84,0.00,,,0.00,67,weatherlink.com 1.10,2013-07-18 14:37:00,
2013-07-18 07:40:00,58.9,54.1,30.21,NW,315,1.0,-999.0,84,0.00,,,0.00,67,Wunderground v.1.15,2013-07-18 14:40:00,
2013-07-18 07:45:00,58.9,54.1,30.21,NW,315,1.0,-999.0,84,0.00,,,0.00,67,Wunderground v.1.15,2013-07-18 14:45:00,
2013-07-18 07:50:00,58.9,54.1,30.21,NW,315,1.0,-999.0,84,0.00,,,0.00,67,Wunderground v.1.15,2013-07-18 14:50:00,
2013-07-18 07:52:00,58.9,54.0,30.21,NW,312,0.0,3.0,84,0.00,,,0.00,76,weatherlink.com 1.10,2013-07-18 14:52:00,
2013-07-18 07:55:00,59.0,54.2,30.21,NW,315,1.0,-999.0,84,0.00,,,0.00,80,Wunderground v.1.15,2013-07-18 14:55:00,
2013-07-18 08:00:00,59.0,54.2,30.21,NW,315,1.0,-999.0,84,0.00,,,0.00,80,Wunderground v.1.15,2013-07-18 15:00:00,
2013-07-18 08:05:00,59.0,54.2,30.21,NW,315,1.0,-999.0,84,0.00,,,0.00,80,Wunderground v.1.15,2013-07-18 15:05:00,
2013-07-18 08:07:00,59.0,54.0,30.21,NW,315,0.0,4.0,84,0.00,,,0.00,104,weatherlink.com 1.10,2013-07-18 15:07:00,
2013-07-18 08:10:00,59.1,54.6,30.21,NW,315,1.0,-999.0,85,0.00,,,0.00,102,Wunderground v.1.15,2013-07-18 15:10:00,
2013-07-18 08:15:00,59.1,54.6,30.21,NW,315,1.0,-999.0,85,0.00,,,0.00,102,Wunderground v.1.15,2013-07-18 15:15:00,
2013-07-18 08:20:00,59.1,54.6,30.21,NW,315,1.0,-999.0,85,0.00,,,0.00,102,Wunderground v.1.15,2013-07-18 15:20:00,
2013-07-18 08:22:00,59.4,55.0,30.21,NW,314,0.0,2.0,84,0.00,,,0.00,120,weatherlink.com 1.10,2013-07-18 15:22:00,
2013-07-18 08:25:00,59.5,54.3,30.22,NW,315,0.0,-999.0,83,0.00,,,0.00,123,Wunderground v.1.15,2013-07-18 15:25:00,
2013-07-18 08:30:00,59.5,54.3,30.22,NW,315,0.0,-999.0,83,0.00,,,0.00,123,Wunderground v.1.15,2013-07-18 15:30:00,
2013-07-18 08:35:00,59.5,54.3,30.22,NW,315,0.0,-999.0,83,0.00,,,0.00,123,Wunderground v.1.15,2013-07-18 15:35:00,
2013-07-18 08:37:00,59.9,54.0,30.22,NW,314,2.0,2.0,82,0.00,,,0.00,144,weatherlink.com 1.10,2013-07-18 15:37:00,
2013-07-18 08:40:00,59.9,54.4,30.22,NW,315,1.0,-999.0,82,0.00,,,0.00,147,Wunderground v.1.15,2013-07-18 15:40:00,
2013-07-18 08:45:00,59.9,54.4,30.22,NW,315,1.0,-999.0,82,0.00,,,0.00,147,Wunderground v.1.15,2013-07-18 15:45:00,
2013-07-18 08:50:00,59.9,54.4,30.22,NW,315,1.0,-999.0,82,0.00,,,0.00,147,Wunderground v.1.15,2013-07-18 15:50:00,
2013-07-18 08:52:00,60.3,55.0,30.22,NW,310,0.0,3.0,83,0.00,,,0.00,172,weatherlink.com 1.10,2013-07-18 15:52:00,
2013-07-18 08:55:00,60.2,54.7,30.22,NW,315,1.0,-999.0,82,0.00,,,0.00,179,Wunderground v.1.15,2013-07-18 15:55:00,
2013-07-18 09:00:00,60.2,54.7,30.22,NW,315,1.0,-999.0,82,0.00,,,0.00,179,Wunderground v.1.15,2013-07-18 16:00:00,
2013-07-18 09:05:00,60.2,54.7,30.22,NW,315,1.0,-999.0,82,0.00,,,0.00,179,Wunderground v.1.15,2013-07-18 16:05:00,
2013-07-18 09:07:00,60.5,55.0,30.22,NNE,16,0.0,3.0,83,0.00,,,0.00,204,weatherlink.com 1.10,2013-07-18 16:07:00,
2013-07-18 09:10:00,60.6,55.1,30.22,WNW,293,1.0,-999.0,82,0.00,,,0.00,201,Wunderground v.1.15,2013-07-18 16:10:00,
2013-07-18 09:15:00,60.6,55.1,30.22,WNW,293,1.0,-999.0,82,0.00,,,0.00,201,Wunderground v.1.15,2013-07-18 16:15:00,
2013-07-18 09:20:00,60.6,55.1,30.22,WNW,293,1.0,-999.0,82,0.00,,,0.00,201,Wunderground v.1.15,2013-07-18 16:20:00,
2013-07-18 09:22:00,60.7,55.0,30.22,WNW,301,0.0,4.0,82,0.00,,,0.00,227,weatherlink.com 1.10,2013-07-18 16:22:00,
2013-07-18 09:25:00,60.9,55.0,30.21,WNW,293,1.0,-999.0,81,0.00,,,0.00,229,Wunderground v.1.15,2013-07-18 16:25:00,
2013-07-18 09:30:00,60.9,55.0,30.21,WNW,293,1.0,-999.0,81,0.00,,,0.00,229,Wunderground v.1.15,2013-07-18 16:30:00,
2013-07-18 09:35:00,60.9,55.0,30.21,WNW,293,1.0,-999.0,81,0.00,,,0.00,229,Wunderground v.1.15,2013-07-18 16:35:00,
2013-07-18 09:37:00,61.4,56.0,30.21,NW,320,0.0,3.0,81,0.00,,,0.00,248,weatherlink.com 1.10,2013-07-18 16:37:00,
2013-07-18 09:40:00,61.5,55.3,30.21,NW,315,1.0,-999.0,80,0.00,,,0.00,240,Wunderground v.1.15,2013-07-18 16:40:00,
2013-07-18 09:45:00,61.5,55.3,30.21,NW,315,1.0,-999.0,80,0.00,,,0.00,240,Wunderground v.1.15,2013-07-18 16:45:00,
2013-07-18 09:50:00,61.5,55.3,30.21,NW,315,1.0,-999.0,80,0.00,,,0.00,240,Wunderground v.1.15,2013-07-18 16:50:00,
2013-07-18 09:52:00,61.9,56.0,30.21,SE,132,0.0,4.0,80,0.00,,,0.00,265,weatherlink.com 1.10,2013-07-18 16:52:00,
2013-07-18 09:55:00,62.1,55.9,30.21,WNW,293,1.0,-999.0,80,0.00,,,0.00,267,Wunderground v.1.15,2013-07-18 16:55:00,
2013-07-18 10:00:00,62.1,55.9,30.21,WNW,293,1.0,-999.0,80,0.00,,,0.00,267,Wunderground v.1.15,2013-07-18 17:00:00,
2013-07-18 10:05:00,62.1,55.9,30.21,WNW,293,1.0,-999.0,80,0.00,,,0.00,267,Wunderground v.1.15,2013-07-18 17:05:00,
2013-07-18 10:07:00,62.3,56.0,30.21,NW,325,2.0,3.0,79,0.00,,,0.00,267,weatherlink.com 1.10,2013-07-18 17:07:00,
2013-07-18 10:10:00,62.3,56.0,30.21,WNW,293,1.0,-999.0,80,0.00,,,0.00,266,Wunderground v.1.15,2013-07-18 17:10:00,
2013-07-18 10:15:00,62.3,56.0,30.21,WNW,293,1.0,-999.0,80,0.00,,,0.00,266,Wunderground v.1.15,2013-07-18 17:15:00,
2013-07-18 10:20:00,62.3,56.0,30.21,WNW,293,1.0,-999.0,80,0.00,,,0.00,266,Wunderground v.1.15,2013-07-18 17:20:00,
2013-07-18 10:22:00,62.3,56.0,30.21,NNW,348,1.0,4.0,79,0.00,,,0.00,265,weatherlink.com 1.10,2013-07-18 17:22:00,
2013-07-18 10:25:00,62.3,55.7,30.21,NW,315,1.0,-999.0,79,0.00,,,0.00,272,Wunderground v.1.15,2013-07-18 17:25:00,
2013-07-18 10:30:00,62.3,55.7,30.21,NW,315,1.0,-999.0,79,0.00,,,0.00,272,Wunderground v.1.15,2013-07-18 17:30:00,
2013-07-18 10:35:00,62.3,55.7,30.21,NW,315,1.0,-999.0,79,0.00,,,0.00,272,Wunderground v.1.15,2013-07-18 17:35:00,
2013-07-18 10:37:00,63.0,56.0,30.21,West,275,2.0,3.0,79,0.00,,,0.00,316,weatherlink.com 1.10,2013-07-18 17:37:00,
2013-07-18 10:40:00,62.9,55.9,30.21,NW,315,1.0,-999.0,78,0.00,,,0.00,326,Wunderground v.1.15,2013-07-18 17:40:00,
2013-07-18 10:45:00,62.9,55.9,30.21,NW,315,1.0,-999.0,78,0.00,,,0.00,326,Wunderground v.1.15,2013-07-18 17:45:00,
2013-07-18 10:50:00,62.9,55.9,30.21,NW,315,1.0,-999.0,78,0.00,,,0.00,326,Wunderground v.1.15,2013-07-18 17:50:00,
2013-07-18 10:52:00,63.5,57.0,30.21,NW,312,0.0,3.0,78,0.00,,,0.00,336,weatherlink.com 1.10,2013-07-18 17:52:00,
2013-07-18 10:55:00,63.8,56.1,30.21,NW,315,0.0,-999.0,76,0.00,,,0.00,345,Wunderground v.1.15,2013-07-18 17:55:00,
2013-07-18 11:00:00,63.8,56.1,30.21,NW,315,0.0,-999.0,76,0.00,,,0.00,345,Wunderground v.1.15,2013-07-18 18:00:00,
2013-07-18 11:05:00,63.8,56.1,30.21,NW,315,0.0,-999.0,76,0.00,,,0.00,345,Wunderground v.1.15,2013-07-18 18:05:00,
2013-07-18 11:08:00,65.0,58.0,30.21,NW,315,0.0,2.0,77,0.00,,,0.00,401,weatherlink.com 1.10,2013-07-18 18:08:00,
2013-07-18 11:10:00,65.0,56.9,30.21,NNW,338,1.0,-999.0,75,0.00,,,0.00,407,Wunderground v.1.15,2013-07-18 18:10:00,
2013-07-18 11:15:00,65.0,56.9,30.21,NNW,338,1.0,-999.0,75,0.00,,,0.00,407,Wunderground v.1.15,2013-07-18 18:15:00,
2013-07-18 11:20:00,65.0,56.9,30.21,NNW,338,1.0,-999.0,75,0.00,,,0.00,407,Wunderground v.1.15,2013-07-18 18:20:00,
2013-07-18 11:23:00,65.4,58.0,30.21,WSW,237,0.0,2.0,77,0.00,,,0.00,434,weatherlink.com 1.10,2013-07-18 18:23:00,
2013-07-18 11:25:00,65.4,57.3,30.20,WSW,248,1.0,-999.0,75,0.00,,,0.00,429,Wunderground v.1.15,2013-07-18 18:25:00,
2013-07-18 11:30:00,65.4,57.3,30.20,WSW,248,1.0,-999.0,75,0.00,,,0.00,429,Wunderground v.1.15,2013-07-18 18:30:00,
2013-07-18 11:35:00,65.4,57.3,30.20,WSW,248,1.0,-999.0,75,0.00,,,0.00,429,Wunderground v.1.15,2013-07-18 18:35:00,
2013-07-18 11:38:00,66.2,58.0,30.20,ESE,115,0.0,2.0,75,0.00,,,0.00,461,weatherlink.com 1.10,2013-07-18 18:38:00,
2013-07-18 11:40:00,66.4,57.5,30.19,ESE,113,1.0,-999.0,73,0.00,,,0.00,470,Wunderground v.1.15,2013-07-18 18:40:00,
2013-07-18 11:45:00,66.4,57.5,30.19,ESE,113,1.0,-999.0,73,0.00,,,0.00,470,Wunderground v.1.15,2013-07-18 18:45:00,
2013-07-18 11:50:00,66.4,57.5,30.19,ESE,113,1.0,-999.0,73,0.00,,,0.00,470,Wunderground v.1.15,2013-07-18 18:50:00,
2013-07-18 11:53:00,67.4,58.0,30.19,SSE,150,0.0,3.0,72,0.00,,,0.00,547,weatherlink.com 1.10,2013-07-18 18:53:00,
2013-07-18 11:55:00,67.7,58.0,30.19,NW,315,1.0,-999.0,71,0.00,,,0.00,511,Wunderground v.1.15,2013-07-18 18:55:00,
2013-07-18 12:00:00,67.7,58.0,30.19,NW,315,1.0,-999.0,71,0.00,,,0.00,511,Wunderground v.1.15,2013-07-18 19:00:00,
2013-07-18 12:05:00,67.7,58.0,30.19,NW,315,1.0,-999.0,71,0.00,,,0.00,511,Wunderground v.1.15,2013-07-18 19:05:00,
2013-07-18 12:08:00,68.1,59.0,30.19,NW,321,1.0,4.0,72,0.00,,,0.00,619,weatherlink.com 1.10,2013-07-18 19:08:00,
2013-07-18 12:10:00,68.3,58.1,30.19,SE,135,1.0,-999.0,70,0.00,,,0.00,581,Wunderground v.1.15,2013-07-18 19:10:00,
2013-07-18 12:15:00,68.3,58.1,30.19,SE,135,1.0,-999.0,70,0.00,,,0.00,581,Wunderground v.1.15,2013-07-18 19:15:00,
2013-07-18 12:20:00,68.3,58.1,30.19,SE,135,1.0,-999.0,70,0.00,,,0.00,581,Wunderground v.1.15,2013-07-18 19:20:00,
2013-07-18 12:23:00,69.0,59.0,30.19,SSW,194,0.0,4.0,70,0.00,,,0.00,577,weatherlink.com 1.10,2013-07-18 19:23:00,
2013-07-18 12:25:00,69.2,59.4,30.19,NW,315,0.0,-999.0,71,0.00,,,0.00,581,Wunderground v.1.15,2013-07-18 19:25:00,
2013-07-18 12:30:00,69.2,59.4,30.19,NW,315,0.0,-999.0,71,0.00,,,0.00,581,Wunderground v.1.15,2013-07-18 19:30:00,
2013-07-18 12:35:00,69.2,59.4,30.19,NW,315,0.0,-999.0,71,0.00,,,0.00,581,Wunderground v.1.15,2013-07-18 19:35:00,
2013-07-18 12:38:00,69.2,58.0,30.19,North,9,3.0,5.0,68,0.00,,,0.00,406,weatherlink.com 1.10,2013-07-18 19:38:00,
2013-07-18 12:40:00,69.3,59.1,30.18,NNE,23,2.0,-999.0,70,0.00,,,0.00,485,Wunderground v.1.15,2013-07-18 19:40:00,
2013-07-18 12:45:00,69.3,59.1,30.18,NNE,23,2.0,-999.0,70,0.00,,,0.00,485,Wunderground v.1.15,2013-07-18 19:45:00,
2013-07-18 12:50:00,69.3,59.1,30.18,NNE,23,2.0,-999.0,70,0.00,,,0.00,485,Wunderground v.1.15,2013-07-18 19:50:00,
2013-07-18 12:53:00,69.5,58.0,30.18,WNW,288,0.0,5.0,68,0.00,,,0.00,352,weatherlink.com 1.10,2013-07-18 19:53:00,
2013-07-18 12:55:00,69.4,59.2,30.18,WNW,293,1.0,-999.0,70,0.00,,,0.00,310,Wunderground v.1.15,2013-07-18 19:55:00,
2013-07-18 13:00:00,69.4,59.2,30.18,WNW,293,1.0,-999.0,70,0.00,,,0.00,310,Wunderground v.1.15,2013-07-18 20:00:00,
2013-07-18 13:05:00,69.4,59.2,30.18,WNW,293,1.0,-999.0,70,0.00,,,0.00,310,Wunderground v.1.15,2013-07-18 20:05:00,
2013-07-18 13:08:00,69.6,59.0,30.18,West,271,1.0,4.0,68,0.00,,,0.00,325,weatherlink.com 1.10,2013-07-18 20:08:00,
2013-07-18 13:10:00,69.4,58.8,30.18,WNW,293,2.0,-999.0,69,0.00,,,0.00,529,Wunderground v.1.15,2013-07-18 20:10:00,
2013-07-18 13:15:00,69.4,58.8,30.18,WNW,293,2.0,-999.0,69,0.00,,,0.00,529,Wunderground v.1.15,2013-07-18 20:15:00,
2013-07-18 13:20:00,69.4,58.8,30.18,WNW,293,2.0,-999.0,69,0.00,,,0.00,529,Wunderground v.1.15,2013-07-18 20:20:00,
2013-07-18 13:23:00,69.4,60.0,30.18,NW,317,5.0,8.0,71,0.00,,,0.00,454,weatherlink.com 1.10,2013-07-18 20:23:00,
2013-07-18 13:25:00,69.4,59.2,30.18,WNW,293,2.0,-999.0,70,0.00,,,0.00,658,Wunderground v.1.15,2013-07-18 20:25:00,
2013-07-18 13:30:00,69.4,59.2,30.18,WNW,293,2.0,-999.0,70,0.00,,,0.00,658,Wunderground v.1.15,2013-07-18 20:30:00,
2013-07-18 13:35:00,69.4,59.2,30.18,WNW,293,2.0,-999.0,70,0.00,,,0.00,658,Wunderground v.1.15,2013-07-18 20:35:00,
2013-07-18 13:38:00,69.7,59.0,30.18,North,360,4.0,7.0,68,0.00,,,0.00,889,weatherlink.com 1.10,2013-07-18 20:38:00,
2013-07-18 13:40:00,69.8,58.8,30.17,WNW,293,3.0,-999.0,68,0.00,,,0.00,880,Wunderground v.1.15,2013-07-18 20:40:00,
2013-07-18 13:45:00,69.8,58.8,30.17,WNW,293,3.0,-999.0,68,0.00,,,0.00,880,Wunderground v.1.15,2013-07-18 20:45:00,
2013-07-18 13:50:00,69.8,58.8,30.17,WNW,293,3.0,-999.0,68,0.00,,,0.00,880,Wunderground v.1.15,2013-07-18 20:50:00,
2013-07-18 13:53:00,70.6,60.0,30.17,East,100,1.0,7.0,68,0.00,,,0.00,875,weatherlink.com 1.10,2013-07-18 20:53:00,
2013-07-18 13:55:00,70.9,59.0,30.17,WNW,293,2.0,-999.0,66,0.00,,,0.00,947,Wunderground v.1.15,2013-07-18 20:55:00,
2013-07-18 14:00:00,70.9,59.0,30.17,WNW,293,2.0,-999.0,66,0.00,,,0.00,947,Wunderground v.1.15,2013-07-18 21:00:00,
2013-07-18 14:05:00,70.9,59.0,30.17,WNW,293,2.0,-999.0,66,0.00,,,0.00,947,Wunderground v.1.15,2013-07-18 21:05:00,
2013-07-18 14:08:00,72.3,59.0,30.17,WNW,290,1.0,8.0,64,0.00,,,0.00,522,weatherlink.com 1.10,2013-07-18 21:08:00,
2013-07-18 14:10:00,72.2,59.8,30.16,WNW,293,2.0,-999.0,65,0.00,,,0.00,912,Wunderground v.1.15,2013-07-18 21:10:00,
2013-07-18 14:15:00,72.2,59.8,30.16,WNW,293,2.0,-999.0,65,0.00,,,0.00,912,Wunderground v.1.15,2013-07-18 21:15:00,
2013-07-18 14:20:00,72.2,59.8,30.16,WNW,293,2.0,-999.0,65,0.00,,,0.00,912,Wunderground v.1.15,2013-07-18 21:20:00,
2013-07-18 14:23:00,72.1,59.0,30.16,NW,317,0.0,6.0,64,0.00,,,0.00,939,weatherlink.com 1.10,2013-07-18 21:23:00,
2013-07-18 14:25:00,72.3,59.9,30.16,NW,315,1.0,-999.0,65,0.00,,,0.00,924,Wunderground v.1.15,2013-07-18 21:25:00,
2013-07-18 14:30:00,72.3,59.9,30.16,NW,315,1.0,-999.0,65,0.00,,,0.00,924,Wunderground v.1.15,2013-07-18 21:30:00,
2013-07-18 14:35:00,72.3,59.9,30.16,NW,315,1.0,-999.0,65,0.00,,,0.00,924,Wunderground v.1.15,2013-07-18 21:35:00,
2013-07-18 14:38:00,72.8,60.0,30.16,WNW,290,2.0,6.0,65,0.00,,,0.00,872,weatherlink.com 1.10,2013-07-18 21:38:00,
2013-07-18 14:40:00,72.8,60.8,30.16,WNW,293,2.0,-999.0,66,0.00,,,0.00,844,Wunderground v.1.15,2013-07-18 21:40:00,
2013-07-18 14:45:00,72.8,60.8,30.16,WNW,293,2.0,-999.0,66,0.00,,,0.00,844,Wunderground v.1.15,2013-07-18 21:45:00,
2013-07-18 14:50:00,72.8,60.8,30.16,WNW,293,2.0,-999.0,66,0.00,,,0.00,844,Wunderground v.1.15,2013-07-18 21:50:00,
2013-07-18 14:53:00,73.8,61.0,30.16,WSW,253,1.0,7.0,65,0.00,,,0.00,803,weatherlink.com 1.10,2013-07-18 21:53:00,
2013-07-18 14:55:00,73.8,60.0,30.15,WNW,293,1.0,-999.0,62,0.00,,,0.00,798,Wunderground v.1.15,2013-07-18 21:55:00,
2013-07-18 15:00:00,73.8,60.0,30.15,WNW,293,1.0,-999.0,62,0.00,,,0.00,798,Wunderground v.1.15,2013-07-18 22:00:00,
2013-07-18 15:05:00,73.8,60.0,30.15,WNW,293,1.0,-999.0,62,0.00,,,0.00,798,Wunderground v.1.15,2013-07-18 22:05:00,
2013-07-18 15:08:00,73.7,60.0,30.15,WNW,292,5.0,6.0,62,0.00,,,0.00,772,weatherlink.com 1.10,2013-07-18 22:08:00,
2013-07-18 15:10:00,73.8,60.0,30.15,WNW,293,3.0,-999.0,62,0.00,,,0.00,770,Wunderground v.1.15,2013-07-18 22:10:00,
2013-07-18 15:15:00,73.8,60.0,30.15,WNW,293,3.0,-999.0,62,0.00,,,0.00,770,Wunderground v.1.15,2013-07-18 22:15:00,
2013-07-18 15:20:00,73.8,60.0,30.15,WNW,293,3.0,-999.0,62,0.00,,,0.00,770,Wunderground v.1.15,2013-07-18 22:20:00,
2013-07-18 15:23:00,73.5,61.0,30.15,WNW,298,1.0,7.0,65,0.00,,,0.00,752,weatherlink.com 1.10,2013-07-18 22:23:00,
2013-07-18 15:25:00,73.4,59.6,30.15,WNW,293,3.0,-999.0,62,0.00,,,0.00,750,Wunderground v.1.15,2013-07-18 22:25:00,
2013-07-18 15:30:00,73.4,59.6,30.15,WNW,293,3.0,-999.0,62,0.00,,,0.00,750,Wunderground v.1.15,2013-07-18 22:30:00,
2013-07-18 15:35:00,73.4,59.6,30.15,WNW,293,3.0,-999.0,62,0.00,,,0.00,750,Wunderground v.1.15,2013-07-18 22:35:00,
2013-07-18 15:38:00,73.2,59.0,30.15,WNW,282,3.0,11.0,62,0.00,,,0.00,724,weatherlink.com 1.10,2013-07-18 22:38:00,
2013-07-18 15:40:00,73.2,59.4,30.15,WNW,293,3.0,-999.0,62,0.00,,,0.00,723,Wunderground v.1.15,2013-07-18 22:40:00,
2013-07-18 15:45:00,73.2,59.4,30.15,WNW,293,3.0,-999.0,62,0.00,,,0.00,723,Wunderground v.1.15,2013-07-18 22:45:00,
2013-07-18 15:50:00,73.2,59.4,30.15,WNW,293,3.0,-999.0,62,0.00,,,0.00,723,Wunderground v.1.15,2013-07-18 22:50:00,
2013-07-18 15:53:00,73.0,59.0,30.14,West,281,4.0,9.0,62,0.00,,,0.00,700,weatherlink.com 1.10,2013-07-18 22:53:00,
2013-07-18 15:55:00,73.0,59.2,30.15,WNW,293,4.0,-999.0,62,0.00,,,0.00,698,Wunderground v.1.15,2013-07-18 22:55:00,
2013-07-18 16:00:00,73.0,59.2,30.15,WNW,293,4.0,-999.0,62,0.00,,,0.00,698,Wunderground v.1.15,2013-07-18 23:00:00,
2013-07-18 16:05:00,73.0,59.2,30.15,WNW,293,4.0,-999.0,62,0.00,,,0.00,698,Wunderground v.1.15,2013-07-18 23:05:00,
2013-07-18 16:08:00,73.2,60.0,30.14,NW,306,3.0,8.0,63,0.00,,,0.00,673,weatherlink.com 1.10,2013-07-18 23:08:00,
2013-07-18 16:10:00,72.9,59.6,30.14,NW,315,3.0,-999.0,63,0.00,,,0.00,671,Wunderground v.1.15,2013-07-18 23:10:00,
2013-07-18 16:15:00,72.9,59.6,30.14,NW,315,3.0,-999.0,63,0.00,,,0.00,671,Wunderground v.1.15,2013-07-18 23:15:00,
2013-07-18 16:20:00,72.9,59.6,30.14,NW,315,3.0,-999.0,63,0.00,,,0.00,671,Wunderground v.1.15,2013-07-18 23:20:00,
2013-07-18 16:23:00,72.6,60.0,30.14,NW,308,3.0,9.0,65,0.00,,,0.00,640,weatherlink.com 1.10,2013-07-18 23:23:00,
2013-07-18 16:25:00,72.9,59.1,30.14,NNW,338,3.0,-999.0,62,0.00,,,0.00,639,Wunderground v.1.15,2013-07-18 23:25:00,
2013-07-18 16:30:00,72.9,59.1,30.14,NNW,338,3.0,-999.0,62,0.00,,,0.00,639,Wunderground v.1.15,2013-07-18 23:30:00,
2013-07-18 16:35:00,72.9,59.1,30.14,NNW,338,3.0,-999.0,62,0.00,,,0.00,639,Wunderground v.1.15,2013-07-18 23:35:00,
2013-07-18 16:38:00,73.2,58.0,30.14,NW,312,3.0,9.0,60,0.00,,,0.00,417,weatherlink.com 1.10,2013-07-18 23:38:00,
2013-07-18 16:40:00,73.1,59.3,30.14,WNW,293,3.0,-999.0,62,0.00,,,0.00,558,Wunderground v.1.15,2013-07-18 23:40:00,
2013-07-18 16:45:00,73.1,59.3,30.14,WNW,293,3.0,-999.0,62,0.00,,,0.00,558,Wunderground v.1.15,2013-07-18 23:45:00,
2013-07-18 16:50:00,73.1,59.3,30.14,WNW,293,3.0,-999.0,62,0.00,,,0.00,558,Wunderground v.1.15,2013-07-18 23:50:00,
2013-07-18 16:53:00,72.4,59.0,30.14,North,351,2.0,9.0,63,0.00,,,0.00,139,weatherlink.com 1.10,2013-07-18 23:53:00,
2013-07-18 16:55:00,72.4,58.2,30.13,WNW,293,3.0,-999.0,61,0.00,,,0.00,462,Wunderground v.1.15,2013-07-18 23:55:00,
2013-07-18 17:00:00,72.4,58.2,30.13,WNW,293,3.0,-999.0,61,0.00,,,0.00,462,Wunderground v.1.15,2013-07-19 00:00:00,
2013-07-18 17:05:00,72.4,58.2,30.13,WNW,293,3.0,-999.0,61,0.00,,,0.00,462,Wunderground v.1.15,2013-07-19 00:05:00,
2013-07-18 17:08:00,72.3,58.0,30.13,WNW,285,7.0,8.0,62,0.00,,,0.00,461,weatherlink.com 1.10,2013-07-19 00:08:00,
2013-07-18 17:10:00,72.4,58.6,30.13,WNW,293,4.0,-999.0,62,0.00,,,0.00,528,Wunderground v.1.15,2013-07-19 00:10:00,
2013-07-18 17:15:00,72.4,58.6,30.13,WNW,293,4.0,-999.0,62,0.00,,,0.00,528,Wunderground v.1.15,2013-07-19 00:15:00,
2013-07-18 17:20:00,72.4,58.6,30.13,WNW,293,4.0,-999.0,62,0.00,,,0.00,528,Wunderground v.1.15,2013-07-19 00:20:00,
2013-07-18 17:23:00,72.4,59.0,30.13,WNW,291,2.0,8.0,63,0.00,,,0.00,510,weatherlink.com 1.10,2013-07-19 00:23:00,
2013-07-18 17:25:00,72.4,58.6,30.13,WNW,293,4.0,-999.0,62,0.00,,,0.00,506,Wunderground v.1.15,2013-07-19 00:25:00,
2013-07-18 17:30:00,72.4,58.6,30.13,WNW,293,4.0,-999.0,62,0.00,,,0.00,506,Wunderground v.1.15,2013-07-19 00:30:00,
2013-07-18 17:35:00,72.4,58.6,30.13,WNW,293,4.0,-999.0,62,0.00,,,0.00,506,Wunderground v.1.15,2013-07-19 00:35:00,
2013-07-18 17:38:00,72.4,59.0,30.13,NW,325,5.0,9.0,63,0.00,,,0.00,471,weatherlink.com 1.10,2013-07-19 00:38:00,
2013-07-18 17:40:00,72.3,59.0,30.13,WNW,293,4.0,-999.0,63,0.00,,,0.00,469,Wunderground v.1.15,2013-07-19 00:40:00,
2013-07-18 17:45:00,72.3,59.0,30.13,WNW,293,4.0,-999.0,63,0.00,,,0.00,469,Wunderground v.1.15,2013-07-19 00:45:00,
2013-07-18 17:50:00,72.3,59.0,30.13,WNW,293,4.0,-999.0,63,0.00,,,0.00,469,Wunderground v.1.15,2013-07-19 00:50:00,
2013-07-18 17:53:00,72.2,59.0,30.13,West,281,1.0,8.0,63,0.00,,,0.00,434,weatherlink.com 1.10,2013-07-19 00:53:00,
2013-07-18 17:55:00,72.3,58.1,30.12,NW,315,3.0,-999.0,61,0.00,,,0.00,431,Wunderground v.1.15,2013-07-19 00:55:00,
2013-07-18 18:00:00,72.3,58.1,30.12,NW,315,3.0,-999.0,61,0.00,,,0.00,431,Wunderground v.1.15,2013-07-19 01:00:00,
2013-07-18 18:05:00,72.3,58.1,30.12,NW,315,3.0,-999.0,61,0.00,,,0.00,431,Wunderground v.1.15,2013-07-19 01:05:00,
2013-07-18 18:08:00,72.1,58.0,30.12,NNW,335,4.0,11.0,62,0.00,,,0.00,394,weatherlink.com 1.10,2013-07-19 01:08:00,
2013-07-18 18:10:00,72.2,58.5,30.12,WNW,293,4.0,-999.0,62,0.00,,,0.00,394,Wunderground v.1.15,2013-07-19 01:10:00,
2013-07-18 18:15:00,72.2,58.5,30.12,WNW,293,4.0,-999.0,62,0.00,,,0.00,394,Wunderground v.1.15,2013-07-19 01:15:00,
2013-07-18 18:20:00,72.2,58.5,30.12,WNW,293,4.0,-999.0,62,0.00,,,0.00,394,Wunderground v.1.15,2013-07-19 01:20:00,
2013-07-18 18:23:00,71.5,59.0,30.12,WNW,290,3.0,10.0,64,0.00,,,0.00,355,weatherlink.com 1.10,2013-07-19 01:23:00,
2013-07-18 18:25:00,71.4,59.0,30.12,WNW,293,4.0,-999.0,65,0.00,,,0.00,351,Wunderground v.1.15,2013-07-19 01:25:00,
2013-07-18 18:30:00,71.4,59.0,30.12,WNW,293,4.0,-999.0,65,0.00,,,0.00,351,Wunderground v.1.15,2013-07-19 01:30:00,
2013-07-18 18:35:00,71.4,59.0,30.12,WNW,293,4.0,-999.0,65,0.00,,,0.00,351,Wunderground v.1.15,2013-07-19 01:35:00,
2013-07-18 18:38:00,70.6,59.0,30.12,NW,311,5.0,9.0,66,0.00,,,0.00,315,weatherlink.com 1.10,2013-07-19 01:38:00,
2013-07-18 18:40:00,70.6,59.1,30.12,WNW,293,4.0,-999.0,67,0.00,,,0.00,311,Wunderground v.1.15,2013-07-19 01:40:00,
2013-07-18 18:45:00,70.6,59.1,30.12,WNW,293,4.0,-999.0,67,0.00,,,0.00,311,Wunderground v.1.15,2013-07-19 01:45:00,
2013-07-18 18:50:00,70.6,59.1,30.12,WNW,293,4.0,-999.0,67,0.00,,,0.00,311,Wunderground v.1.15,2013-07-19 01:50:00,
2013-07-18 18:53:00,70.4,58.0,30.12,WNW,282,4.0,6.0,66,0.00,,,0.00,276,weatherlink.com 1.10,2013-07-19 01:53:00,
2013-07-18 18:55:00,70.3,59.2,30.12,NW,315,3.0,-999.0,68,0.00,,,0.00,271,Wunderground v.1.15,2013-07-19 01:55:00,
2013-07-18 19:00:00,70.3,59.2,30.12,NW,315,3.0,-999.0,68,0.00,,,0.00,271,Wunderground v.1.15,2013-07-19 02:00:00,
2013-07-18 19:05:00,70.3,59.2,30.12,NW,315,3.0,-999.0,68,0.00,,,0.00,271,Wunderground v.1.15,2013-07-19 02:05:00,
2013-07-18 19:08:00,69.4,58.0,30.12,WNW,285,3.0,8.0,68,0.00,,,0.00,234,weatherlink.com 1.10,2013-07-19 02:08:00,
2013-07-18 19:10:00,69.4,58.8,30.12,WNW,293,2.0,-999.0,69,0.00,,,0.00,232,Wunderground v.1.15,2013-07-19 02:10:00,
2013-07-18 19:15:00,69.4,58.8,30.12,WNW,293,2.0,-999.0,69,0.00,,,0.00,232,Wunderground v.1.15,2013-07-19 02:15:00,
2013-07-18 19:20:00,69.4,58.8,30.12,WNW,293,2.0,-999.0,69,0.00,,,0.00,232,Wunderground v.1.15,2013-07-19 02:20:00,
2013-07-18 19:23:00,68.7,59.0,30.12,WNW,293,4.0,6.0,70,0.00,,,0.00,195,weatherlink.com 1.10,2013-07-19 02:23:00,
2013-07-18 19:25:00,68.6,58.4,30.12,WNW,293,2.0,-999.0,70,0.00,,,0.00,192,Wunderground v.1.15,2013-07-19 02:25:00,
2013-07-18 19:30:00,68.6,58.4,30.12,WNW,293,2.0,-999.0,70,0.00,,,0.00,192,Wunderground v.1.15,2013-07-19 02:30:00,
2013-07-18 19:35:00,68.6,58.4,30.12,WNW,293,2.0,-999.0,70,0.00,,,0.00,192,Wunderground v.1.15,2013-07-19 02:35:00,
2013-07-18 19:38:00,67.0,57.0,30.12,NW,313,2.0,9.0,71,0.00,,,0.00,153,weatherlink.com 1.10,2013-07-19 02:38:00,
2013-07-18 19:40:00,67.1,58.2,30.12,WNW,293,3.0,-999.0,73,0.00,,,0.00,149,Wunderground v.1.15,2013-07-19 02:40:00,
2013-07-18 19:45:00,67.1,58.2,30.12,WNW,293,3.0,-999.0,73,0.00,,,0.00,149,Wunderground v.1.15,2013-07-19 02:45:00,
2013-07-18 19:50:00,67.1,58.2,30.12,WNW,293,3.0,-999.0,73,0.00,,,0.00,149,Wunderground v.1.15,2013-07-19 02:50:00,
2013-07-18 19:53:00,66.3,58.0,30.12,WNW,300,2.0,6.0,74,0.00,,,0.00,109,weatherlink.com 1.10,2013-07-19 02:53:00,
2013-07-18 19:55:00,66.3,57.8,30.12,WNW,293,2.0,-999.0,74,0.00,,,0.00,107,Wunderground v.1.15,2013-07-19 02:55:00,
2013-07-18 20:00:00,66.3,57.8,30.12,WNW,293,2.0,-999.0,74,0.00,,,0.00,107,Wunderground v.1.15,2013-07-19 03:00:00,
2013-07-18 20:05:00,66.3,57.8,30.12,WNW,293,2.0,-999.0,74,0.00,,,0.00,107,Wunderground v.1.15,2013-07-19 03:05:00,
2013-07-18 20:08:00,65.4,57.0,30.12,WNW,294,2.0,6.0,75,0.00,,,0.00,72,weatherlink.com 1.10,2013-07-19 03:08:00,
2013-07-18 20:10:00,65.4,57.6,30.12,WNW,293,2.0,-999.0,76,0.00,,,0.00,70,Wunderground v.1.15,2013-07-19 03:10:00,
2013-07-18 20:15:00,65.4,57.6,30.12,WNW,293,2.0,-999.0,76,0.00,,,0.00,70,Wunderground v.1.15,2013-07-19 03:15:00,
2013-07-18 20:20:00,65.4,57.6,30.12,WNW,293,2.0,-999.0,76,0.00,,,0.00,70,Wunderground v.1.15,2013-07-19 03:20:00,
2013-07-18 20:23:00,64.6,57.0,30.12,WNW,300,2.0,4.0,77,0.00,,,0.00,26,weatherlink.com 1.10,2013-07-19 03:23:00,
2013-07-18 20:25:00,64.4,57.7,30.12,NW,315,1.0,-999.0,79,0.00,,,0.00,29,Wunderground v.1.15,2013-07-19 03:25:00,
2013-07-18 20:30:00,64.4,57.7,30.12,NW,315,1.0,-999.0,79,0.00,,,0.00,29,Wunderground v.1.15,2013-07-19 03:30:00,
2013-07-18 20:35:00,64.4,57.7,30.12,NW,315,1.0,-999.0,79,0.00,,,0.00,29,Wunderground v.1.15,2013-07-19 03:35:00,
2013-07-18 20:38:00,63.2,57.0,30.12,West,280,3.0,3.0,80,0.00,,,0.00,12,weatherlink.com 1.10,2013-07-19 03:38:00,
2013-07-18 20:40:00,63.1,57.2,30.12,WNW,293,1.0,-999.0,81,0.00,,,0.00,12,Wunderground v.1.15,2013-07-19 03:40:00,
2013-07-18 20:45:00,63.1,57.2,30.12,WNW,293,1.0,-999.0,81,0.00,,,0.00,12,Wunderground v.1.15,2013-07-19 03:45:00,
2013-07-18 20:50:00,63.1,57.2,30.12,WNW,293,1.0,-999.0,81,0.00,,,0.00,12,Wunderground v.1.15,2013-07-19 03:50:00,
2013-07-18 20:53:00,62.5,57.0,30.12,West,274,1.0,3.0,82,0.00,,,0.00,7,weatherlink.com 1.10,2013-07-19 03:53:00,
2013-07-18 20:55:00,62.4,56.8,30.12,West,270,0.0,-999.0,82,0.00,,,0.00,5,Wunderground v.1.15,2013-07-19 03:55:00,
2013-07-18 21:00:00,62.4,56.8,30.12,West,270,0.0,-999.0,82,0.00,,,0.00,5,Wunderground v.1.15,2013-07-19 04:00:00,
2013-07-18 21:05:00,62.4,56.8,30.12,West,270,0.0,-999.0,82,0.00,,,0.00,5,Wunderground v.1.15,2013-07-19 04:05:00,
2013-07-18 21:08:00,61.9,56.0,30.12,NW,306,0.0,2.0,82,0.00,,,0.00,0,weatherlink.com 1.10,2013-07-19 04:08:00,
2013-07-18 21:10:00,61.9,56.7,30.12,NW,315,0.0,-999.0,83,0.00,,,0.00,0,Wunderground v.1.15,2013-07-19 04:10:00,
2013-07-18 21:15:00,61.9,56.7,30.12,NW,315,0.0,-999.0,83,0.00,,,0.00,0,Wunderground v.1.15,2013-07-19 04:15:00,
2013-07-18 21:20:00,61.9,56.7,30.12,NW,315,0.0,-999.0,83,0.00,,,0.00,0,Wunderground v.1.15,2013-07-19 04:20:00,
2013-07-18 21:23:00,61.7,57.0,30.12,NW,306,0.0,0.0,83,0.00,,,0.00,0,weatherlink.com 1.10,2013-07-19 04:23:00,
2013-07-18 21:25:00,61.6,56.7,30.13,N/A,-737280,0.0,-999.0,84,0.00,,,0.00,0,Wunderground v.1.15,2013-07-19 04:25:00,
2013-07-18 21:30:00,61.6,56.7,30.13,N/A,-737280,0.0,-999.0,84,0.00,,,0.00,0,Wunderground v.1.15,2013-07-19 04:30:00,
2013-07-18 21:35:00,61.6,56.7,30.13,N/A,-737280,0.0,-999.0,84,0.00,,,0.00,0,Wunderground v.1.15,2013-07-19 04:35:00,
2013-07-18 21:38:00,61.1,56.0,30.13,NW,306,0.0,1.0,84,0.00,,,0.00,0,weatherlink.com 1.10,2013-07-19 04:38:00,
2013-07-18 21:40:00,61.1,56.6,30.13,NW,315,0.0,-999.0,85,0.00,,,0.00,0,Wunderground v.1.15,2013-07-19 04:40:00,
2013-07-18 21:45:00,61.1,56.6,30.13,NW,315,0.0,-999.0,85,0.00,,,0.00,0,Wunderground v.1.15,2013-07-19 04:45:00,
2013-07-18 21:50:00,61.1,56.6,30.13,NW,315,0.0,-999.0,85,0.00,,,0.00,0,Wunderground v.1.15,2013-07-19 04:50:00,
2013-07-18 21:53:00,60.7,56.0,30.13,NW,306,0.0,0.0,85,0.00,,,0.00,0,weatherlink.com 1.10,2013-07-19 04:53:00,
2013-07-18 21:55:00,60.7,56.2,30.13,NW,315,0.0,-999.0,85,0.00,,,0.00,0,Wunderground v.1.15,2013-07-19 04:55:00,
2013-07-18 22:00:00,60.7,56.2,30.13,NW,315,0.0,-999.0,85,0.00,,,0.00,0,Wunderground v.1.15,2013-07-19 05:00:00,
2013-07-18 22:05:00,60.7,56.2,30.13,NW,315,0.0,-999.0,85,0.00,,,0.00,0,Wunderground v.1.15,2013-07-19 05:05:00,
2013-07-18 22:08:00,60.4,56.0,30.13,NW,306,0.0,0.0,86,0.00,,,0.00,0,weatherlink.com 1.10,2013-07-19 05:08:00,
2013-07-18 22:10:00,60.4,56.2,30.13,NW,315,0.0,-999.0,86,0.00,,,0.00,0,Wunderground v.1.15,2013-07-19 05:10:00,
2013-07-18 22:15:00,60.4,56.2,30.13,NW,315,0.0,-999.0,86,0.00,,,0.00,0,Wunderground v.1.15,2013-07-19 05:15:00,
2013-07-18 22:20:00,60.4,56.2,30.13,NW,315,0.0,-999.0,86,0.00,,,0.00,0,Wunderground v.1.15,2013-07-19 05:20:00,
2013-07-18 22:23:00,60.2,56.0,30.13,NW,306,0.0,2.0,86,0.00,,,0.00,0,weatherlink.com 1.10,2013-07-19 05:23:00,
2013-07-18 22:25:00,60.1,55.9,30.13,NW,315,0.0,-999.0,86,0.00,,,0.00,0,Wunderground v.1.15,2013-07-19 05:25:00,
2013-07-18 22:30:00,60.1,55.9,30.13,NW,315,0.0,-999.0,86,0.00,,,0.00,0,Wunderground v.1.15,2013-07-19 05:30:00,
2013-07-18 22:35:00,60.1,55.9,30.13,NW,315,0.0,-999.0,86,0.00,,,0.00,0,Wunderground v.1.15,2013-07-19 05:35:00,
2013-07-18 22:38:00,59.7,56.0,30.13,NW,306,0.0,1.0,86,0.00,,,0.00,0,weatherlink.com 1.10,2013-07-19 05:38:00,
2013-07-18 22:40:00,59.7,55.5,30.13,NW,315,0.0,-999.0,86,0.00,,,0.00,0,Wunderground v.1.15,2013-07-19 05:40:00,
2013-07-18 22:45:00,59.7,55.5,30.13,NW,315,0.0,-999.0,86,0.00,,,0.00,0,Wunderground v.1.15,2013-07-19 05:45:00,
2013-07-18 22:50:00,59.7,55.5,30.13,NW,315,0.0,-999.0,86,0.00,,,0.00,0,Wunderground v.1.15,2013-07-19 05:50:00,
2013-07-18 22:53:00,59.4,55.0,30.13,NW,306,0.0,0.0,86,0.00,,,0.00,0,weatherlink.com 1.10,2013-07-19 05:53:00,
2013-07-18 22:55:00,59.4,55.2,30.13,N/A,-737280,0.0,-999.0,86,0.00,,,0.00,0,Wunderground v.1.15,2013-07-19 05:55:00,
2013-07-18 23:00:00,59.4,55.2,30.13,N/A,-737280,0.0,-999.0,86,0.00,,,0.00,0,Wunderground v.1.15,2013-07-19 06:00:00,
2013-07-18 23:05:00,59.4,55.2,30.13,N/A,-737280,0.0,-999.0,86,0.00,,,0.00,0,Wunderground v.1.15,2013-07-19 06:05:00,
2013-07-18 23:08:00,59.0,55.0,30.13,NW,306,0.0,0.0,87,0.00,,,0.00,0,weatherlink.com 1.10,2013-07-19 06:08:00,
2013-07-18 23:10:00,59.0,55.1,30.13,N/A,-737280,0.0,-999.0,87,0.00,,,0.00,0,Wunderground v.1.15,2013-07-19 06:10:00,
2013-07-18 23:15:00,59.0,55.1,30.13,N/A,-737280,0.0,-999.0,87,0.00,,,0.00,0,Wunderground v.1.15,2013-07-19 06:15:00,
2013-07-18 23:20:00,59.0,55.1,30.13,N/A,-737280,0.0,-999.0,87,0.00,,,0.00,0,Wunderground v.1.15,2013-07-19 06:20:00,
2013-07-18 23:23:00,58.6,55.0,30.13,NW,306,0.0,0.0,88,0.00,,,0.00,0,weatherlink.com 1.10,2013-07-19 06:23:00,
2013-07-18 23:25:00,58.6,55.1,30.13,N/A,-737280,0.0,-999.0,88,0.00,,,0.00,0,Wunderground v.1.15,2013-07-19 06:25:00,
2013-07-18 23:30:00,58.6,55.1,30.13,N/A,-737280,0.0,-999.0,88,0.00,,,0.00,0,Wunderground v.1.15,2013-07-19 06:30:00,
2013-07-18 23:35:00,58.6,55.1,30.13,N/A,-737280,0.0,-999.0,88,0.00,,,0.00,0,Wunderground v.1.15,2013-07-19 06:35:00,
2013-07-18 23:38:00,58.3,55.0,30.13,NW,306,0.0,1.0,88,0.00,,,0.00,0,weatherlink.com 1.10,2013-07-19 06:38:00,
2013-07-18 23:40:00,58.3,54.8,30.13,NW,315,0.0,-999.0,88,0.00,,,0.00,0,Wunderground v.1.15,2013-07-19 06:40:00,
2013-07-18 23:45:00,58.3,54.8,30.13,NW,315,0.0,-999.0,88,0.00,,,0.00,0,Wunderground v.1.15,2013-07-19 06:45:00,
2013-07-18 23:50:00,58.3,54.8,30.13,NW,315,0.0,-999.0,88,0.00,,,0.00,0,Wunderground v.1.15,2013-07-19 06:50:00,
2013-07-18 23:53:00,57.9,55.0,30.13,NW,306,0.0,0.0,89,0.00,,,0.00,0,weatherlink.com 1.10,2013-07-19 06:53:00,
2013-07-18 23:55:00,57.9,54.7,30.13,N/A,-737280,0.0,-999.0,89,0.00,,,0.00,0,Wunderground v.1.15,2013-07-19 06:55:00,